Date String (YYYY-MM-DD hh:mm:ss) UTC,Instrument flags,Ambient pressure (hPa),Sample flow (lpm),Bypass flow (lpm),Sample temperature (°C),Ambient temperature (°C),ASC tube jacket temperature (°C),LED temperature (°C),Box temperature (°C),Sample RH (%),Span deviation,Mass concentration (μg/m³),Mass concentration (μg/m³),Mass concentration (μg/m³)
DateTimeUTC,F1_M11,P_M11,Q1_M11,Q2_M11,T1_M11,T2_M11,T3_M11,T4_M11,T5_M11,U1_M11,ZSPAN_M11,X0_M11,X2_M11,X1_M11
2023-01-06 04:00:00,,0822.4,4.98,0.00,22.3,22.0,00.0,31.0,24.2,09.4,0001.8,0015.76,0009.08,0008.52
2023-01-06 04:01:00,,0822.5,5.00,0.00,22.3,21.6,00.0,31.1,24.1,09.3,0001.8,0015.83,0009.10,0008.51
2023-01-06 04:02:00,,0822.6,5.01,0.00,22.3,21.4,00.0,31.1,24.1,09.3,0001.9,0015.41,0009.10,0008.49
2023-01-06 04:03:00,,0822.6,5.01,0.00,22.3,21.2,00.0,31.1,24.0,09.3,0001.3,0014.69,0009.09,0008.49
2023-01-06 04:04:00,,0822.6,5.01,0.00,22.3,21.0,00.0,31.1,24.0,09.4,0001.1,0014.18,0009.16,0008.54
2023-01-06 04:05:00,,0822.4,5.00,0.00,22.2,20.9,00.0,31.1,23.9,09.4,0000.0,0014.47,0009.24,0008.62
2023-01-06 04:06:00,,0822.4,5.00,0.00,22.2,20.7,00.0,31.1,23.8,09.4,0000.2,0014.32,0009.25,0008.66
2023-01-06 04:07:00,,0822.5,4.99,0.00,22.2,20.5,00.0,31.1,23.7,09.4,0000.3,0014.13,0009.27,0008.69
2023-01-06 04:08:00,,0822.6,5.00,0.00,22.1,20.1,00.0,31.1,23.5,09.4,0000.2,0013.74,0009.25,0008.72
2023-01-06 04:09:00,,0822.6,5.00,0.00,22.0,19.8,00.0,31.0,23.4,09.6,0000.0,0013.26,0009.20,0008.70
2023-01-06 04:10:00,,0822.6,5.00,0.00,21.9,19.6,00.0,31.0,23.3,09.7,0000.0,0013.75,0009.16,0008.70
2023-01-06 04:11:00,,0822.6,5.01,0.00,21.8,19.9,00.0,30.9,23.3,09.7,0000.0,0013.82,0009.22,0008.76
2023-01-06 04:12:00,,0822.5,5.00,0.00,21.9,21.2,00.0,30.9,23.7,09.7,0000.0,0013.47,0009.28,0008.81
2023-01-06 04:13:00,,0822.4,5.00,0.00,22.0,22.3,00.0,30.9,24.0,09.5,0000.9,0013.55,0009.32,0008.87
2023-01-06 04:14:00,,0822.4,4.99,0.00,22.2,22.5,00.0,30.9,24.1,09.4,0001.4,0013.68,0009.38,0008.93
2023-01-06 04:15:00,,0822.4,5.01,0.00,22.2,21.9,00.0,30.9,24.0,09.4,0001.4,0013.62,0009.40,0008.95
2023-01-06 04:16:00,,0822.4,5.00,0.00,22.1,21.3,00.0,31.0,23.8,09.4,0001.9,0013.39,0009.41,0008.97
2023-01-06 04:17:00,,0822.4,5.01,0.00,22.0,20.7,00.0,31.0,23.6,09.4,0002.3,0013.52,0009.45,0009.00
2023-01-06 04:18:00,,0822.4,5.00,0.00,22.0,20.3,00.0,31.0,23.5,09.4,0000.0,0013.88,0009.50,0009.04
2023-01-06 04:19:00,,0822.3,5.00,0.00,21.9,20.0,00.0,30.9,23.3,09.5,0000.8,0014.98,0009.60,0009.08
2023-01-06 04:20:00,,0822.3,5.00,0.00,21.9,19.9,00.0,30.9,23.3,09.4,0001.9,0015.31,0009.62,0009.09
2023-01-06 04:21:00,,0822.4,5.00,0.00,21.8,19.9,00.0,30.9,23.3,09.4,0001.4,0014.74,0009.62,0009.08
2023-01-06 04:22:00,,0822.4,4.99,0.00,21.8,19.8,00.0,30.9,23.3,09.4,0001.4,0014.65,0009.59,0009.06
2023-01-06 04:23:00,,0822.4,4.99,0.00,21.7,19.6,00.0,30.8,23.1,09.5,0001.8,0014.67,0009.57,0009.04
2023-01-06 04:24:00,,0822.4,5.01,0.00,21.6,19.4,00.0,30.8,23.0,09.5,0001.4,0014.84,0009.56,0009.02
2023-01-06 04:25:00,,0822.4,5.00,0.00,21.6,19.4,00.0,30.7,22.9,09.6,0001.3,0014.89,0009.53,0008.98
2023-01-06 04:26:00,,0822.4,5.02,0.00,21.6,20.5,00.0,30.6,23.2,09.6,0001.3,0014.88,0009.46,0008.92
2023-01-06 04:27:00,,0822.3,4.99,0.00,21.7,21.8,00.0,30.6,23.6,09.5,0001.5,0014.87,0009.42,0008.87
2023-01-06 04:28:00,,0822.3,5.00,0.00,21.9,22.4,00.0,30.6,23.8,09.4,0000.8,0014.73,0009.36,0008.82
2023-01-06 04:29:00,,0822.3,4.99,0.00,21.9,21.9,00.0,30.7,23.8,09.4,0000.6,0014.55,0009.29,0008.75
2023-01-06 04:30:00,,0822.3,4.99,0.00,21.9,21.4,00.0,30.7,23.7,09.4,0001.0,0013.52,0009.16,0008.65
2023-01-06 04:31:00,,0822.4,5.01,0.00,21.9,21.1,00.0,30.7,23.7,09.4,0001.3,0012.90,0009.05,0008.54
2023-01-06 04:32:00,,0822.4,5.00,0.00,21.9,21.0,00.0,30.8,23.6,09.3,0001.7,0013.28,0008.95,0008.45
2023-01-06 04:33:00,,0822.3,4.99,0.00,21.9,20.7,00.0,30.8,23.6,09.3,0001.0,0013.61,0008.87,0008.34
2023-01-06 04:34:00,,0822.3,5.01,0.00,21.9,20.4,00.0,30.8,23.5,09.3,0000.5,0013.52,0008.75,0008.25
2023-01-06 04:35:00,,0822.2,5.01,0.00,21.8,20.2,00.0,30.8,23.3,09.3,0000.5,0013.22,0008.66,0008.16
2023-01-06 04:36:00,,0822.2,5.01,0.00,21.8,20.0,00.0,30.7,23.3,09.3,0000.5,0013.25,0008.56,0008.09
2023-01-06 04:37:00,,0822.1,5.02,0.00,21.7,20.0,00.0,30.7,23.3,09.4,0000.6,0013.40,0008.51,0008.04
2023-01-06 04:38:00,,0822.1,5.00,0.00,21.7,20.1,00.0,30.7,23.3,09.4,0000.3,0013.29,0008.44,0007.99
2023-01-06 04:39:00,,0822.1,4.99,0.00,21.7,20.2,00.0,30.7,23.3,09.4,0000.5,0013.30,0008.37,0007.93
2023-01-06 04:40:00,,0822.1,5.00,0.00,21.7,20.2,00.0,30.7,23.3,09.3,0000.4,0013.30,0008.32,0007.90
2023-01-06 04:41:00,,0822.1,5.00,0.00,21.7,20.3,00.0,30.7,23.3,09.3,0000.0,0014.00,0008.34,0007.89
2023-01-06 04:42:00,,0822.1,5.01,0.00,21.8,21.1,00.0,30.6,23.5,09.3,0000.0,0014.38,0008.33,0007.87
2023-01-06 04:43:00,,0822.1,5.00,0.00,21.9,22.0,00.0,30.6,23.8,09.4,0000.0,0013.91,0008.28,0007.83
2023-01-06 04:44:00,,0822.1,4.99,0.00,22.0,22.6,00.0,30.6,24.0,09.3,0000.0,0014.30,0008.24,0007.80
2023-01-06 04:45:00,,0821.9,4.99,0.00,22.0,22.0,00.0,30.7,24.0,09.2,0000.0,0014.34,0008.21,0007.77
2023-01-06 04:46:00,,0822.0,5.00,0.00,22.0,21.4,00.0,30.8,23.8,09.2,0000.0,0015.07,0008.19,0007.74
2023-01-06 04:47:00,,0822.1,5.00,0.00,22.0,21.0,00.0,30.8,23.7,09.2,0000.0,0015.01,0008.20,0007.73
2023-01-06 04:48:00,,0822.1,5.01,0.00,22.0,20.7,00.0,30.8,23.6,09.3,0000.0,0014.73,0008.20,0007.69
2023-01-06 04:49:00,,0822.1,5.02,0.00,21.9,20.6,00.0,30.8,23.5,09.3,0000.0,0015.00,0008.17,0007.66
2023-01-06 04:50:00,,0822.0,5.02,0.00,21.9,20.5,00.0,30.8,23.6,09.2,0000.0,0015.37,0008.16,0007.65
2023-01-06 04:51:00,,0821.9,5.00,0.00,21.9,20.4,00.0,30.8,23.6,09.3,0000.0,0015.40,0008.20,0007.64
2023-01-06 04:52:00,,0822.0,5.00,0.00,21.9,20.5,00.0,30.8,23.6,09.3,0000.0,0014.85,0008.16,0007.63
2023-01-06 04:53:00,,0822.1,5.00,0.00,21.9,20.5,00.0,30.8,23.5,09.3,0000.0,0014.99,0008.11,0007.60
2023-01-06 04:54:00,,0822.3,4.99,0.00,21.9,20.3,00.0,30.8,23.4,09.4,0000.0,0015.55,0008.13,0007.59
2023-01-06 04:55:00,,0822.3,5.01,0.00,21.8,19.9,00.0,30.7,23.2,09.5,0001.6,0014.76,0008.17,0007.59
2023-01-06 04:56:00,,0822.1,5.00,0.00,21.7,19.7,00.0,30.7,23.1,09.6,0002.3,0014.98,0008.23,0007.60
2023-01-06 04:57:00,,0822.0,5.00,0.00,21.7,20.7,00.0,30.7,23.4,09.6,0002.8,0014.70,0008.23,0007.59
2023-01-06 04:58:00,,0822.1,5.00,0.00,21.8,22.0,00.0,30.6,23.7,09.5,0003.0,0014.53,0008.22,0007.58
2023-01-06 04:59:00,,0822.2,5.00,0.00,22.0,22.6,00.0,30.7,23.9,09.5,0000.3,0014.41,0008.18,0007.56
